Location: Rio Negrinho
(26.2394°S, 49.4999°W)
Time: 21:46:19
(UTC+00:00)

Cosmos 1844 Rocket - Pass Details

Date: 07 June 2020
Orbit: 826 x 843 km, 71.0° (Epoch: 10 July)

Event Time Altitude Azimuth Distance (km) Brightness Sun altitude
Rises 07:24:55 0° 7° (N) 3,345 6.0 -34.0°
Reaches altitude 10° 07:27:34 10° 17° (NNE) 2,420 5.3 -33.5°
Maximum altitude 07:32:24 31° 77° (ENE) 1,415 4.3 -32.4°
Drops below altitude 10° 07:37:16 10° 138° (SE) 2,449 5.4 -31.3°
Sets 07:39:57 0° 147° (SSE) 3,392 6.1 -30.7°
